Terminal Aerodrome Forecast
Issued by NWS Miami, FL

Home | Current Version | Previous Version | Text Only | Print | Product List | Glossary On
Versions: 1 2 3 4 5 6 7 8 9 10 11 12 13 14 15 16 17 18 19 20 21 22 23 24 25 26 27 28 29 30 31 32 33 34 35 36 37 38 39 40 41 42 43 44 45 46 47 48 49 50
000
FTUS42 KMFL 141557 AAB
TAFAPF
TAF AMD
KAPF 141557Z 1416/1512 22011KT P6SM VCTS SCT028CB BKN040 BKN250
      TEMPO 1416/1418 VRB12G20KT 4SM SHRA SCT020 BKN030
     FM150000 VRB04KT P6SM FEW040 BKN250=

USA.gov is the U.S. government's official web portal to all federal, state and local government web resources and services.